Pardubice, Czech Republic

5:50 AM CET on December 08, 2016 (GMT +0100)
Pardubice

Weather History for LKPD - February, 2014

Change the Weather History Date:

Thursday, February 6, 2014

  Actual Average Record
Temperature  
Mean Temperature 38 °F -  
Max Temperature 46 °F - - ()
Min Temperature 30 °F - - ()
Degree Days  
Heating Degree Days 27    
Moisture  
Dew Point 31 °F    
Average Humidity 78    
Maximum Humidity 93    
Minimum Humidity 51    
Precipitation  
Precipitation 0.00 in - - ()
Sea Level Pressure  
Sea Level Pressure 29.85 in    
Wind  
Wind Speed 4 mph ()    
Max Wind Speed 9 mph    
Max Gust Speed -    
Visibility 7.1 miles    
Events Rain    
T = Trace of Precipitation, MM = Missing Value Source: Averaged Metar Reports

Daily Weather History Graph

Daily Weather History Graph

Search for Another Location

Airport or City:

Trip Planner

Search our weather history database for the weather conditions in past years. The results will help you decide how hot, cold, wet, or windy it might be!

Date:

Astronomy

Feb. 06, 2014 Rise Set
Actual Time 7:23 AM CET 4:59 PM CET
Civil Twilight 6:49 AM CET 5:33 PM CET
Nautical Twilight 6:10 AM CET 6:12 PM CET
Astronomical Twilight 5:33 AM CET 6:50 PM CET
Moon 10:20 AM CET (2/6) 12:19 AM CET (2/6)
Length of Visible Light 10h 44m
Length of Day
9h 36m
Waxing Crescent, 46% of the Moon is Illuminated
Feb 6
Waxing Crescent
Feb 6
First Quarter
Feb 15
Full
Feb 22
Last Quarter
Mar 1
New

Hourly Weather History & Observations

Time (CET) Temp. Windchill Dew Point Humidity Pressure Visibility Wind Dir Wind Speed Gust Speed Precip Events Conditions
12:00 AM 34 °F - 30 °F 79% 29.82 in 6 mi SE 6.7 mph - -   Overcast
12:00 AM 33.8 °F 27.7 °F 30.2 °F 87% 29.77 in 6.2 mi SSE 6.9 mph - N/A   Overcast
1:00 AM 35 °F - 30 °F 74% 29.83 in 6 mi SSE 4.5 mph - -   Overcast
1:00 AM 33.8 °F 29.6 °F 30.2 °F 87% 29.77 in 6.2 mi SSE 4.6 mph - N/A   Overcast
2:00 AM 34 °F - 29 °F 77% 29.85 in 6 mi South 2.2 mph - -   Overcast
2:00 AM 33.8 °F - 30.2 °F 87% 29.80 in 6.2 mi Variable 2.3 mph - N/A   Overcast
3:00 AM 33 °F - 30 °F 84% 29.86 in 6 mi SE 4.5 mph - -   Overcast
3:00 AM 33.8 °F 30.8 °F 30.2 °F 87% 29.80 in 6.2 mi SSE 3.5 mph - N/A   Overcast
3:15 AM 33.8 °F 28.6 °F 30.2 °F 87% 29.80 in 6.2 mi SE 5.8 mph - N/A   Light Freezing Drizzle
4:00 AM 33 °F - 29 °F 81% 29.84 in 6 mi SE 4.5 mph - - Rain Light Freezing Drizzle
4:00 AM 33.8 °F 29.6 °F 30.2 °F 87% 29.80 in 6.2 mi SE 4.6 mph - N/A   Overcast
5:00 AM 31 °F - 28 °F 85% 29.86 in 6 mi ESE 2.2 mph - -   Mostly Cloudy
5:00 AM 32.0 °F - 28.4 °F 87% 29.80 in - Variable 2.3 mph - N/A   Clear
6:00 AM 31 °F - 29 °F 87% 29.88 in 6 mi Calm Calm - -   Overcast
6:00 AM 32.0 °F - 28.4 °F 87% 29.83 in - Calm Calm - N/A   Clear
7:00 AM 31 °F - 28 °F 86% 29.90 in 6 mi ESE 2.2 mph - -   Partly Cloudy
7:00 AM 30.2 °F - 28.4 °F 93% 29.83 in - ESE 1.2 mph - N/A   Clear
8:00 AM 31 °F - 28 °F 85% 29.91 in 4 mi ESE 2.2 mph - -   Mist
8:00 AM 30.2 °F - 28.4 °F 93% 29.86 in 3.7 mi ESE 2.3 mph - N/A   Unknown
9:00 AM 32 °F - 29 °F 86% 29.92 in 4 mi East 2.2 mph - -   Mist
9:00 AM 32.0 °F - 28.4 °F 87% 29.86 in 3.7 mi East 1.2 mph - N/A   Unknown
10:00 AM 35 °F - 31 °F 80% 29.91 in 5 mi East 2.2 mph - -   Mist
10:00 AM 35.6 °F 32.8 °F 30.2 °F 81% 29.86 in 5.0 mi East 3.5 mph - N/A   Mostly Cloudy
11:00 AM 38 °F - 31 °F 69% 29.91 in 6 mi East 4.5 mph - -   Mostly Cloudy
11:00 AM 37.4 °F 34.9 °F 32.0 °F 81% 29.86 in 6.2 mi East 3.5 mph - N/A   Mostly Cloudy
12:00 PM 41 °F - 32 °F 59% 29.91 in 6 mi East 2.2 mph - -   Mostly Cloudy
12:00 PM 41.0 °F 39.0 °F 32.0 °F 70% 29.86 in 6.2 mi East 3.5 mph - N/A   Mostly Cloudy
1:00 PM 44 °F - 33 °F 54% 29.89 in 6 mi South 2.2 mph - -   Mostly Cloudy
1:00 PM 42.8 °F - 33.8 °F 70% 29.86 in 6.2 mi Variable 2.3 mph - N/A   Mostly Cloudy
2:00 PM 46 °F - 34 °F 51% 29.88 in 9 mi WSW 8.9 mph - -   Mostly Cloudy
2:00 PM 46.4 °F 42.4 °F 33.8 °F 62% 29.86 in 6.2 mi WSW 8.1 mph - N/A   Mostly Cloudy
3:00 PM 46 °F - 34 °F 52% 29.88 in 9 mi SSW 4.5 mph - -   Mostly Cloudy
3:00 PM 46.4 °F 43.5 °F 33.8 °F 62% 29.86 in 6.2 mi SSW 5.8 mph - N/A   Mostly Cloudy
4:00 PM 46 °F - 35 °F 55% 29.88 in 9 mi South 4.5 mph - -   Mostly Cloudy
4:00 PM 46.4 °F 45.2 °F 33.8 °F 62% 29.86 in 6.2 mi South 3.5 mph - N/A   Mostly Cloudy
5:00 PM 42 °F - 34 °F 65% 29.88 in 12 mi SSE 2.2 mph - -   Mostly Cloudy
5:00 PM 42.8 °F - 33.8 °F 70% 29.86 in 6.2 mi Variable 2.3 mph - N/A   Mostly Cloudy
6:00 PM 38 °F - 33 °F 74% 29.89 in 12 mi Calm Calm - -   Mostly Cloudy
6:00 PM 39.2 °F - 32.0 °F 75% 29.86 in 6.2 mi Calm Calm - N/A   Mostly Cloudy
7:00 PM 35 °F - 30 °F 76% 29.89 in 12 mi SE 2.2 mph - -   Partly Cloudy
7:00 PM 37.4 °F - 32.0 °F 81% 29.86 in - Variable 1.2 mph - N/A   Clear
8:00 PM 36 °F - 32 °F 80% 29.88 in 12 mi East 6.7 mph - -  
8:00 PM 35.6 °F 30.7 °F 32.0 °F 87% 29.83 in - East 5.8 mph - N/A   Clear
9:00 PM 35 °F - 32 °F 83% 29.86 in 12 mi East 6.7 mph - -  
9:00 PM 35.6 °F 29.9 °F 32.0 °F 87% 29.80 in - East 6.9 mph - N/A   Clear
10:00 PM 34 °F - 31 °F 82% 29.85 in 12 mi East 6.7 mph - -  
10:00 PM 33.8 °F 27.7 °F 30.2 °F 87% 29.80 in - East 6.9 mph - N/A   Clear
11:00 PM 34 °F - 30 °F 80% 29.84 in 12 mi East 6.7 mph - -  
11:00 PM 35.6 °F 29.2 °F 30.2 °F 81% 29.80 in - ESE 8.1 mph - N/A   Clear